{"data":{"norad_id":66570,"intl_designator":"2025-268P","name":"STARLINK-35834","alt_names":[],"object_type":"PAYLOAD","status":"ACTIVE","operator":null,"country":"US","launch_date":"2025-11-21","launch_site_code":"AFETR","launch_vehicle":null,"mission":null,"orbit_class":"UNKNOWN","rcs_meters":null,"size_class":null,"mass_kg":null,"dimensions":null,"purposes":["comms"],"wikipedia_slug":null,"has_3d_model":false,"image_url":null,"decayed_at":null,"tle_current":{"epoch":"2026-05-25T01:18:23.438016Z","epoch_age_seconds":64184,"freshness":"FRESH","line1":"1 66570U 25268P   26145.05443794  .00010219  00000+0  38031-3 0  9991","line2":"2 66570  42.9952 276.2419 0000502   5.7134 354.3723 15.27584124 29631","mean_motion":15.27584124,"eccentricity":5.02e-5,"inclination_deg":42.9952,"raan_deg":276.2419,"arg_perigee_deg":5.7134,"mean_anomaly_deg":354.3723,"bstar":0.00038031,"rev_number":2963,"period_min":94.266494222874,"perigee_km":482.69231640572,"apogee_km":483.38117824995,"semimajor_km":6861.1737473278,"source":"CELESTRAK","updated_at":"2026-05-25T13:38:21.281850Z"}}}